Retour au catalogue

STARLINK-4491

ActifCommunicationsVLEO
NORAD 53408·PAYLOAD·🇺🇸 United States

Lancé Aug 10, 2022 depuis Cape Canaveral Space Force Station

Loading…

Prochains Passages (prochaines 24 heures)

TLE

FraisSource: CelesTrak SupGP

Époque: Sep 14, 2026, 21:34 UTC

1 53408C 22097W   26257.89909722  .00201350  00000+0  97100-2 0  2574
2 53408  53.1604 343.5957 0001290  85.3102 199.4583 15.18090042    18

Suivez STARLINK-4491 en temps réel avec AllMySat

Download on the App Store